Airfield :
LOGIN :

Register | Disclaimer

   EN    FR    IT 

 










Legend :    VFR   Marginal VFR   IFR   Intensive IFR   Very Intensive IFR
Visi :
Ceiling :
>= 8 km
>= 3000ft
5 to 8 km
1000 to 3000 ft
1500m to 5 km
500 to 1000 ft
800 to 1500m
200 to 500 ft
< 800m
< 200 ft
Symbols :   Thunderstorms  Fog  Heavy snow  Heavy precipitations  Wind > 20 kt
SIGMETs :     Misc.  Thunderstorms  Icing  Turbulence  Mountain Waves  Volcanic Ashes






- Airport Elevation : 446 ft
- IATA code : VNE


LFRV - Vannes-Meucon

CURRENT METAR :
  • 161730Z AUTO 30008KT 250V350 7000 -DZ VV/// 10/10 Q1021

EXPIRED METARs :
  • 161700Z AUTO 27010KT 240V310 2000 BR VV/// 11/11 Q1020
  • 161630Z AUTO 27011KT 240V310 1600 BR OVC002 11/11 Q1020
  • 161600Z AUTO 27010KT 220V300 1800 BR OVC002 11/11 Q1020
  • 161530Z AUTO 27009KT 220V300 1500 1400 -DZ BR VV/// 11/11 Q1020
  • 161500Z AUTO 26011KT 230V300 1200 -DZ BR VV/// 11/11 Q1021

TAF N/A



MET'MAP, your aeronautical weather chart ! - Copyright ORBIFLY December 2007 - Disclaimer

ORBIFLY MET'MAP TEAM :

Programming & Development : Alexandra Zaïnal
Concept & original design : Baudouin d'Aumeries
Assistance for programming : Marc-Olivier Méhu
Technical & hardware support : Manuel Goepfert

Contact : metmap@orbifly.com




SOURCES & CREDITS :

   NOAA